TimeCDT,TemperatureF,Dew PointF,Humidity,Sea Level PressureIn,VisibilityMPH,Wind Direction,Wind SpeedMPH,Gust SpeedMPH,PrecipitationIn,Events,Conditions,WindDirDegrees,DateUTC
12:42 AM,71.6,68.0,88,30.00,10.0,Variable,3.5,-,N/A,,Overcast,0,2013-04-24 05:42:00
12:53 AM,72.0,68.0,87,29.99,10.0,South,4.6,-,N/A,,Overcast,190,2013-04-24 05:53:00
1:12 AM,71.6,68.0,88,30.00,10.0,South,5.8,-,0.00,Rain,Light Rain,190,2013-04-24 06:12:00
1:33 AM,71.6,68.0,88,30.00,10.0,South,4.6,-,0.00,,Overcast,190,2013-04-24 06:33:00
1:53 AM,72.0,68.0,87,29.99,10.0,Variable,3.5,-,0.00,,Overcast,0,2013-04-24 06:53:00
2:28 AM,71.6,68.0,88,29.99,10.0,South,4.6,-,0.01,Rain,Light Rain,190,2013-04-24 07:28:00
2:35 AM,71.6,68.0,88,29.99,10.0,SSW,5.8,-,0.01,,Overcast,200,2013-04-24 07:35:00
2:53 AM,72.0,68.0,87,29.98,8.0,South,6.9,-,0.01,Rain,Light Rain,190,2013-04-24 07:53:00
3:06 AM,71.6,68.0,88,29.98,10.0,South,5.8,-,0.00,,Overcast,190,2013-04-24 08:06:00
3:31 AM,71.6,68.0,88,29.98,10.0,South,4.6,-,0.00,,Overcast,170,2013-04-24 08:31:00
3:53 AM,72.0,68.0,87,29.97,10.0,SSE,4.6,-,0.00,,Overcast,160,2013-04-24 08:53:00
4:53 AM,71.6,68.0,88,29.95,10.0,South,6.9,-,N/A,,Overcast,180,2013-04-24 09:53:00
5:53 AM,72.0,68.0,87,29.97,10.0,SSW,8.1,-,0.00,Thunderstorm,Overcast,210,2013-04-24 10:53:00
6:17 AM,64.4,60.8,88,30.00,2.5,NNW,13.8,24.2,0.15,Rain-Thunderstorm,Heavy Thunderstorms and Rain,340,2013-04-24 11:17:00
6:20 AM,62.6,59.0,88,30.02,2.5,NW,12.7,24.2,0.16,Rain-Thunderstorm,Heavy Rain,320,2013-04-24 11:20:00
6:27 AM,60.8,57.2,88,30.03,2.5,NW,6.9,19.6,0.22,Rain-Thunderstorm,Heavy Rain,320,2013-04-24 11:27:00
6:33 AM,60.8,57.2,88,30.04,3.0,NW,10.4,19.6,0.24,Rain-Thunderstorm,Rain,310,2013-04-24 11:33:00
6:41 AM,57.2,55.4,94,30.06,5.0,WNW,13.8,24.2,0.28,Rain-Thunderstorm,Heavy Rain,290,2013-04-24 11:41:00
6:53 AM,55.9,53.1,90,30.06,5.0,NNW,9.2,23.0,0.32,Rain-Thunderstorm,Rain,330,2013-04-24 11:53:00
7:01 AM,55.4,53.6,94,30.08,6.0,WNW,12.7,20.7,0.02,Rain-Thunderstorm,Rain,290,2013-04-24 12:01:00
7:26 AM,53.6,51.8,94,30.09,2.0,Variable,3.5,-,0.23,Rain,Heavy Rain,0,2013-04-24 12:26:00
7:33 AM,53.6,51.8,94,30.09,1.2,Variable,6.9,-,0.28,Rain,Heavy Rain,0,2013-04-24 12:33:00
7:39 AM,53.6,51.8,94,30.08,3.0,Variable,6.9,-,0.29,Rain,Light Rain,0,2013-04-24 12:39:00
7:53 AM,54.0,51.1,90,30.10,10.0,Variable,5.8,-,0.29,,Overcast,0,2013-04-24 12:53:00
8:53 AM,53.1,50.0,89,30.13,6.0,Variable,4.6,-,0.05,Rain,Light Rain,0,2013-04-24 13:53:00
9:53 AM,51.1,48.0,89,30.17,9.0,Variable,5.8,-,0.04,Rain,Light Rain,0,2013-04-24 14:53:00
10:53 AM,52.0,48.9,89,30.20,10.0,Variable,6.9,17.3,0.00,,Overcast,0,2013-04-24 15:53:00
11:41 AM,53.6,48.2,82,30.21,10.0,Variable,4.6,-,N/A,,Overcast,0,2013-04-24 16:41:00
11:53 AM,53.1,48.0,83,30.21,10.0,North,8.1,-,N/A,,Overcast,360,2013-04-24 16:53:00
12:53 PM,55.0,48.9,80,30.20,10.0,Variable,3.5,-,N/A,,Overcast,0,2013-04-24 17:53:00
1:49 PM,57.2,48.2,72,30.20,10.0,Variable,6.9,-,N/A,,Overcast,0,2013-04-24 18:49:00
1:53 PM,57.0,48.0,72,30.19,10.0,Variable,6.9,-,N/A,,Overcast,0,2013-04-24 18:53:00
2:53 PM,57.9,48.0,70,30.19,10.0,North,9.2,16.1,N/A,,Overcast,10,2013-04-24 19:53:00
3:53 PM,61.0,48.0,62,30.18,10.0,Variable,6.9,-,N/A,,Overcast,0,2013-04-24 20:53:00
4:53 PM,61.0,48.0,62,30.16,10.0,North,8.1,-,N/A,,Overcast,350,2013-04-24 21:53:00
5:53 PM,59.0,46.9,64,30.17,10.0,NE,8.1,-,N/A,,Mostly Cloudy,50,2013-04-24 22:53:00
6:02 PM,57.2,46.4,67,30.17,10.0,NE,8.1,-,N/A,,Scattered Clouds,40,2013-04-24 23:02:00
6:53 PM,57.0,46.0,67,30.18,10.0,North,8.1,-,N/A,,Mostly Cloudy,10,2013-04-24 23:53:00
7:53 PM,55.0,46.0,72,30.21,10.0,Calm,Calm,-,N/A,,Overcast,0,2013-04-25 00:53:00
8:53 PM,53.1,45.0,74,30.24,10.0,Calm,Calm,-,N/A,,Scattered Clouds,0,2013-04-25 01:53:00
9:53 PM,50.0,46.0,86,30.25,10.0,Calm,Calm,-,N/A,,Clear,0,2013-04-25 02:53:00
10:53 PM,50.0,46.0,86,30.26,10.0,Calm,Calm,-,N/A,,Clear,0,2013-04-25 03:53:00
11:53 PM,48.9,45.0,86,30.26,10.0,NNE,3.5,-,N/A,,Clear,30,2013-04-25 04:53:00